Temp
-6 -5 -5 -5 -5 -5 -5 -5 -5 -5 -5 -5 -5 -5 -6 -6 -6 -6 -6 -6 -6 -6 -6 -6 -6 -6 -6 -6 -6 -7 -7 -7 -7 -7 -7 -7 -7 -7 -7 -7 -7 -8
-5 -5 -5 -5 -5 -5 -5 -5 -5 -5 -5 -5 -5 -5 -5 -6 -6 -6 -6 -6 -6 -6 -6 -6 -6 -6 -6 -6 -6 -6 -7 -7 -7 -7 -7 -7 -7 -7 -7 -7 -7 -7
-5 -5 -5 -5 -5 -5 -5 -5 -5 -5 -5 -5 -5 -5 -5 -5 -6 -6 -6 -6 -6 -6 -6 -6 -6 -6 -6 -6 -6 -6 -6 -6 -7 -7 -7 -7 -7 -7 -7 -7 -7 -7
-5 -5 -5 -5 -5 -6 -6 -6 -6 -5 -5 -5 -5 -6 -5 -5 -6 -6 -6 -6 -6 -6 -6 -6 -6 -6 -6 -6 -6 -6 -6 -6 -6 -6 -7 -7 -7 -7 -7 -7 -7 -7
-6 -5 -5 -5 -5 -5 -5 -5 -6 -6 -6 -6 -6 -6 -6 -6 -6 -6 -6 -6 -6 -6 -6 -6 -6 -6 -6 -6 -6 -6 -6 -6 -6 -6 -6 -6 -7 -7 -7 -7 -7 -7
-6 -6 -6 -6 -6 -5 -5 -5 -5 -6 -6 -6 -6 -6 -6 -6 -6 -6 -6 -6 -6 -6 -6 -6 -6 -6 -6 -6 -6 -6 -6 -6 -6 -6 -6 -6 -6 -6 -6 -6 -6 -6
-5 -5 -5 -5 -6 -6 -6 -6 -6 -6 -6 -6 -6 -6 -6 -6 -6 -6 -6 -6 -6 -6 -6 -6 -6 -6 -6 -6 -6 -6 -6 -6 -6 -6 -6 -6 -6 -6 -6 -6 -6 -6
-5 -5 -5 -5 -5 -5 -5 -6 -6 -6 -6 -6 -6 -6 -6 -6 -6 -6 -6 -6 -6 -6 -6 -5 -5 -6 -6 -6 -6 -6 -6 -6 -5 -5 -5 -5 -5 -5 -6 -6 -6 -6
-5 -5 -5 -5 -5 -5 -5 -5 -6 -6 -6 -6 -6 -6 -6 -6 -6 -6 -6 -6 -6 -6 -6 -5 -5 -5 -6 -6 -6 -6 -5 -5 -5 -5 -5 -5 -5 -5 -5 -5 -5 -6
-6 -6 -5 -5 -5 -5 -5 -5 -5 -6 -6 -6 -6 -6 -6 -6 -6 -6 -6 -6 -6 -6 -6 -6 -6 -6 -5 -5 -5 -5 -5 -5 -5 -5 -5 -5 -5 -5 -5 -5 -5 -5
-6 -6 -6 -6 -6 -5 -5 -5 -5 -5 -6 -6 -6 -6 -6 -6 -6 -6 -6 -6 -6 -6 -6 -6 -6 -6 -6 -5 -5 -5 -5 -5 -5 -5 -5 -5 -5 -5 -5 -5 -5 -5
-6 -6 -6 -6 -6 -5 -5 -5 -5 -5 -5 -6 -6 -6 -6 -6 -6 -6 -6 -6 -6 -6 -6 -6 -6 -6 -6 -6 -5 -5 -5 -5 -5 -5 -5 -5 -5 -5 -5 -5 -5 -5
-6 -6 -6 -6 -6 -6 -6 -6 -6 -6 -6 -6 -6 -6 -6 -7 -7 -7 -7 -6 -6 -6 -6 -6 -6 -6 -6 -6 -5 -5 -5 -5 -5 -5 -5 -5 -5 -5 -5 -5 -5 -5
-6 -6 -6 -6 -6 -6 -6 -6 -6 -6 -6 -6 -6 -6 -6 -6 -6 -6 -6 -6 -6 -6 -6 -6 -6 -6 -6 -6 -6 -5 -5 -5 -5 -5 -5 -4 -4 -4 -5 -5 -5 -5
-6 -6 -6 -6 -6 -6 -6 -6 -6 -6 -6 -6 -6 -6 -6 -6 -6 -6 -6 -6 -6 -6 -6 -6 -6 -6 -6 -6 -6 -5 -5 -5 -5 -5 -5 -4 -4 -4 -4 -5 -5 -5
-6 -6 -6 -6 -6 -6 -6 -6 -7 -6 -6 -6 -6 -6 -6 -6 -6 -6 -6 -6 -6 -6 -6 -6 -6 -6 -6 -6 -6 -6 -5 -5 -5 -5 -5 -5 -5 -5 -4 -4 -5 -5
-6 -6 -6 -6 -6 -6 -6 -6 -6 -6 -6 -6 -6 -6 -6 -6 -6 -6 -6 -6 -6 -5 -5 -5 -5 -5 -5 -5 -5 -5 -5 -5 -5 -5 -5 -5 -5 -5 -5 -5 -5 -5
-6 -6 -6 -6 -6 -6 -6 -6 -6 -6 -6 -7 -6 -6 -6 -6 -6 -6 -6 -6 -6 -6 -6 -5 -5 -5 -5 -5 -5 -5 -5 -5 -5 -5 -5 -5 -5 -5 -5 -5 -5 -5
-6 -6 -7 -7 -6 -7 -7 -7 -7 -7 -7 -7 -7 -6 -6 -6 -6 -6 -5 -5 -5 -6 -6 -6 -6 -5 -5 -5 -5 -5 -5 -5 -5 -5 -5 -5 -5 -5 -5 -5 -5 -5
-6 -6 -7 -7 -7 -7 -7 -7 -7 -7 -7 -7 -7 -6 -6 -6 -6 -6 -6 -5 -5 -5 -5 -6 -6 -5 -5 -5 -5 -5 -5 -5 -5 -5 -5 -5 -5 -5 -5 -5 -5 -5
-7 -6 -7 -7 -7 -7 -7 -7 -7 -7 -7 -7 -6 -6 -6 -6 -5 -6 -6 -6 -6 -6 -5 -6 -6 -5 -5 -5 -5 -5 -5 -5 -5 -5 -5 -5 -5 -5 -5 -5 -5 -5
-7 -7 -7 -7 -7 -7 -7 -7 -7 -7 -7 -7 -7 -6 -7 -6 -6 -6 -6 -6 -6 -6 -6 -6 -6 -5 -5 -5 -5 -5 -5 -5 -5 -5 -5 -5 -5 -5 -5 -5 -5 -5
-7 -7 -7 -7 -7 -7 -7 -7 -7 -7 -7 -7 -7 -7 -7 -7 -6 -6 -6 -7 -7 -6 -6 -7 -6 -6 -6 -5 -5 -5 -5 -5 -5 -5 -5 -5 -5 -5 -5 -5 -5 -5
-7 -7 -7 -7 -7 -7 -7 -7 -7 -7 -7 -7 -7 -7 -7 -6 -6 -6 -7 -7 -7 -7 -7 -7 -7 -7 -6 -6 -6 -6 -5 -5 -5 -5 -5 -5 -5 -5 -5 -5 -5 -5
-7 -7 -7 -7 -7 -7 -7 -7 -7 -7 -7 -7 -7 -7 -7 -7 -7 -7 -7 -7 -7 -7 -7 -7 -7 -7 -7 -7 -7 -6 -6 -6 -5 -5 -6 -6 -6 -5 -5 -5 -5 -5
-7 -7 -7 -7 -7 -7 -7 -7 -7 -7 -7 -7 -7 -7 -7 -7 -7 -7 -7 -7 -7 -7 -7 -7 -7 -7 -7 -7 -7 -7 -7 -6 -6 -6 -6 -6 -6 -6 -5 -5 -5 -5
Height
5951 5952 5953 5954 5954 5955 5956 5956 5957 5957 5958 5959 5959 5960 5961 5962 5963 5964 5965 5965 5966 5967 5968 5968 5968 5968 5968 5968 5969 5969 5969 5969 5969 5969 5970 5970 5970 5971 5971 5972 5972 5973
5950 5951 5952 5953 5954 5955 5956 5956 5957 5957 5958 5958 5959 5959 5960 5961 5962 5963 5964 5964 5965 5966 5967 5967 5968 5968 5968 5968 5969 5969 5969 5969 5969 5969 5970 5970 5970 5971 5971 5972 5972 5972
5950 5950 5951 5952 5953 5954 5955 5956 5957 5958 5958 5958 5959 5959 5959 5960 5961 5962 5963 5963 5964 5965 5966 5967 5967 5967 5967 5968 5968 5968 5969 5969 5969 5969 5970 5970 5970 5970 5971 5971 5972 5972
5949 5950 5951 5952 5953 5954 5955 5955 5956 5957 5958 5958 5959 5959 5959 5960 5960 5961 5962 5962 5963 5964 5965 5966 5966 5967 5967 5967 5968 5968 5968 5968 5969 5969 5969 5970 5970 5970 5970 5971 5971 5971
5948 5949 5951 5952 5953 5953 5954 5955 5956 5956 5957 5958 5958 5959 5959 5959 5960 5960 5961 5962 5962 5963 5964 5965 5966 5966 5966 5967 5967 5968 5968 5968 5969 5969 5969 5969 5969 5970 5970 5970 5970 5971
5947 5948 5950 5951 5952 5953 5954 5954 5955 5956 5957 5957 5958 5958 5959 5959 5960 5960 5961 5961 5962 5963 5964 5965 5965 5966 5966 5967 5967 5968 5968 5968 5969 5969 5969 5969 5969 5969 5969 5970 5970 5970
5946 5948 5949 5951 5952 5953 5953 5954 5954 5955 5956 5956 5957 5958 5958 5959 5960 5960 5961 5961 5962 5963 5964 5964 5965 5966 5966 5967 5967 5968 5968 5969 5969 5969 5969 5969 5970 5970 5970 5969 5969 5969
5945 5947 5949 5950 5951 5952 5952 5953 5953 5954 5955 5955 5956 5957 5958 5958 5959 5960 5961 5961 5962 5963 5964 5964 5965 5966 5966 5967 5967 5968 5968 5969 5969 5969 5969 5969 5970 5970 5970 5969 5969 5969
5944 5946 5947 5949 5950 5951 5951 5952 5952 5952 5953 5954 5955 5956 5957 5958 5958 5959 5960 5961 5962 5963 5963 5964 5965 5965 5966 5966 5966 5967 5967 5968 5968 5969 5969 5969 5969 5970 5970 5969 5969 5969
5943 5944 5945 5946 5948 5949 5950 5951 5951 5951 5952 5953 5953 5955 5956 5957 5958 5959 5959 5960 5961 5962 5963 5963 5964 5964 5965 5965 5965 5965 5966 5967 5967 5968 5968 5969 5969 5969 5969 5969 5969 5969
5940 5940 5941 5943 5945 5947 5948 5949 5950 5950 5951 5951 5952 5953 5954 5955 5956 5957 5958 5959 5959 5960 5961 5962 5963 5963 5963 5963 5963 5963 5964 5964 5965 5966 5967 5967 5968 5968 5969 5969 5969 5969
5938 5939 5940 5942 5944 5945 5947 5948 5949 5949 5949 5950 5950 5950 5952 5953 5954 5955 5956 5957 5958 5959 5959 5960 5961 5962 5962 5962 5962 5962 5962 5963 5963 5964 5965 5965 5966 5967 5967 5968 5968 5968
5935 5938 5940 5941 5942 5942 5944 5946 5947 5948 5948 5948 5948 5948 5949 5950 5951 5952 5953 5955 5956 5957 5958 5959 5959 5960 5960 5960 5961 5961 5961 5962 5962 5962 5963 5963 5964 5965 5966 5966 5967 5967
5931 5935 5937 5938 5938 5939 5941 5943 5945 5946 5946 5946 5946 5946 5946 5947 5948 5949 5950 5952 5954 5955 5956 5957 5957 5958 5958 5958 5959 5959 5960 5960 5960 5961 5961 5962 5962 5963 5963 5964 5965 5965
5927 5931 5933 5934 5934 5937 5939 5940 5941 5943 5944 5944 5944 5944 5944 5945 5946 5947 5948 5950 5951 5952 5954 5955 5955 5956 5956 5956 5957 5957 5958 5958 5959 5959 5960 5960 5961 5961 5962 5962 5963 5963
5925 5927 5930 5931 5932 5934 5936 5936 5937 5940 5942 5943 5942 5941 5941 5942 5944 5945 5946 5947 5948 5950 5951 5953 5953 5953 5954 5954 5955 5956 5956 5957 5957 5958 5958 5959 5960 5960 5961 5961 5961 5962
5922 5924 5927 5928 5929 5930 5931 5932 5933 5936 5939 5941 5940 5939 5939 5940 5941 5942 5944 5945 5946 5947 5949 5950 5951 5952 5952 5952 5953 5953 5954 5955 5956 5957 5957 5958 5959 5959 5960 5960 5961 5961
5919 5922 5924 5925 5927 5928 5928 5929 5930 5934 5937 5937 5936 5935 5936 5937 5939 5940 5942 5943 5944 5945 5947 5948 5949 5949 5950 5951 5951 5952 5952 5953 5954 5955 5955 5956 5957 5957 5958 5958 5959 5959
5918 5920 5921 5922 5924 5925 5926 5927 5929 5931 5932 5932 5932 5932 5933 5934 5936 5938 5939 5940 5942 5943 5944 5945 5946 5946 5947 5948 5949 5950 5951 5952 5952 5952 5953 5953 5953 5954 5954 5955 5955 5956
5915 5916 5917 5918 5919 5921 5923 5926 5927 5927 5927 5927 5929 5930 5931 5931 5933 5935 5936 5937 5938 5939 5941 5942 5942 5942 5943 5944 5946 5947 5948 5949 5950 5950 5951 5951 5950 5950 5951 5951 5952 5952
5913 5913 5914 5915 5916 5917 5919 5922 5924 5925 5924 5925 5926 5927 5929 5931 5931 5932 5933 5934 5935 5936 5937 5938 5938 5938 5939 5941 5943 5944 5945 5946 5947 5948 5948 5948 5948 5948 5948 5948 5949 5950
5912 5913 5913 5914 5914 5915 5916 5918 5921 5922 5923 5923 5923 5924 5927 5929 5929 5929 5930 5931 5932 5933 5933 5933 5934 5935 5936 5938 5939 5940 5942 5943 5944 5945 5945 5946 5946 5946 5946 5946 5946 5947
5910 5911 5912 5913 5913 5913 5914 5915 5917 5919 5920 5921 5922 5922 5924 5926 5925 5924 5926 5928 5929 5930 5930 5931 5930 5931 5933 5934 5935 5936 5938 5939 5941 5942 5942 5943 5943 5943 5943 5944 5944 5944
5907 5908 5909 5910 5910 5911 5912 5913 5914 5915 5916 5918 5919 5920 5920 5920 5920 5920 5922 5924 5925 5926 5927 5928 5928 5929 5930 5931 5931 5932 5934 5936 5937 5939 5940 5940 5941 5941 5941 5941 5941 5941
5903 5904 5905 5906 5907 5908 5909 5910 5911 5911 5912 5913 5914 5914 5914 5915 5916 5917 5919 5921 5922 5923 5923 5924 5925 5926 5926 5927 5928 5928 5930 5931 5933 5935 5936 5937 5937 5938 5939 5939 5939 5939
5899 5900 5902 5903 5904 5905 5906 5907 5908 5908 5909 5910 5910 5910 5910 5912 5913 5915 5916 5917 5918 5919 5919 5920 5921 5921 5922 5923 5924 5925 5926 5927 5928 5930 5931 5933 5934 5935 5935 5936 5936 5935
Wind_Speed
17 16 16 16 16 16 15 15 16 16 16 15 15 14 13 12 12 11 11 10 10 9 8 8 8 8 7 7 6 6 6 6 5 5 5 5 5 5 5 6 6 6
17 17 17 16 16 15 15 14 14 14 14 14 13 13 13 12 12 11 11 10 10 10 9 8 8 7 7 7 7 7 7 7 6 6 6 6 6 6 7 7 7 6
17 18 18 18 17 17 16 14 13 13 13 12 12 12 12 12 12 11 11 11 10 10 9 9 8 8 8 8 8 8 7 7 7 7 7 7 8 8 8 9 8 8
17 18 18 18 18 18 17 16 15 14 13 12 12 12 12 12 12 11 11 11 11 10 10 9 9 8 8 8 8 8 8 7 7 7 8 8 8 8 9 9 9 9
17 17 17 17 17 18 18 17 16 15 14 13 12 12 12 12 12 12 12 11 11 11 10 10 9 9 8 8 8 8 8 8 8 8 8 7 8 8 8 9 9 9
17 17 16 16 16 17 17 17 16 16 15 14 13 13 13 12 12 12 12 12 12 11 11 10 9 9 8 8 8 8 8 8 8 8 8 7 7 7 8 8 9 9
17 17 17 17 16 16 16 16 16 16 16 15 14 13 13 13 13 12 12 12 12 11 11 10 9 9 9 9 9 9 9 9 9 9 8 7 7 7 7 8 8 8
19 18 18 18 18 17 17 17 17 16 16 16 15 14 13 13 13 13 12 12 12 11 11 10 10 9 9 10 10 10 10 10 10 9 9 8 8 7 7 7 7 8
18 18 18 19 19 19 20 19 19 18 17 17 16 14 13 12 12 12 12 12 12 11 11 10 9 9 9 10 10 11 11 11 11 11 10 9 9 8 7 7 7 7
17 18 18 19 20 21 21 21 21 20 19 18 17 16 14 12 11 11 12 12 12 11 10 9 9 9 10 10 11 11 12 12 12 12 12 11 10 9 8 7 7 7
21 21 21 21 21 21 22 23 22 22 21 20 19 18 16 14 12 12 12 12 12 11 10 10 10 10 11 11 12 12 12 13 13 13 13 13 12 11 9 8 8 7
24 23 22 21 21 21 22 23 23 23 23 22 20 19 18 16 15 14 13 13 13 12 11 11 11 11 12 12 12 13 13 13 14 14 14 14 13 13 12 11 10 9
27 25 22 21 22 23 23 23 23 24 24 24 23 22 20 19 18 17 16 15 14 14 13 13 12 13 13 13 13 13 13 14 14 14 15 15 14 14 15 14 13 11
30 28 26 25 26 26 25 24 24 25 26 26 25 24 23 22 21 20 19 18 16 16 15 14 14 14 15 14 14 14 14 14 14 14 15 15 16 15 16 16 16 15
31 31 29 29 29 28 26 26 26 27 28 28 26 25 24 23 22 21 21 20 19 18 17 16 16 16 16 16 15 14 14 14 14 14 14 15 15 16 16 17 17 17
29 31 31 30 30 30 29 29 28 29 31 30 28 26 25 24 23 22 21 21 21 20 20 18 18 18 18 18 17 16 15 14 14 13 13 13 14 15 16 17 17 17
26 29 30 31 31 31 32 32 31 32 34 32 29 27 25 25 24 24 23 22 22 21 21 20 20 21 21 20 20 19 17 16 15 14 13 12 13 13 14 15 16 17
22 25 28 29 30 31 32 32 32 35 35 32 28 26 25 25 25 25 25 24 23 22 22 22 22 22 22 22 22 21 20 19 17 16 14 13 13 13 14 15 15 16
17 21 25 27 29 31 32 32 33 34 32 29 27 26 25 26 27 27 26 25 24 24 24 23 24 24 24 24 24 23 23 21 21 20 19 17 16 15 15 15 16 16
15 17 20 24 28 31 31 31 32 32 29 26 27 26 26 27 28 28 27 27 26 25 25 25 26 26 27 26 26 25 25 24 23 22 22 22 21 20 19 19 18 18
17 17 18 20 24 28 29 30 30 29 26 26 28 28 27 28 29 28 27 27 26 26 26 27 28 29 29 28 27 27 27 26 25 24 24 25 24 24 23 22 21 21
19 19 18 17 20 23 26 27 27 27 27 28 29 28 28 28 28 27 27 26 26 26 27 28 29 30 30 30 29 29 28 28 27 27 26 26 26 27 26 25 24 23
21 20 20 19 19 20 21 23 25 26 27 28 27 27 27 27 28 28 27 27 28 28 28 28 30 31 31 31 31 30 30 29 29 28 28 28 28 29 29 28 27 26
25 23 22 22 22 21 21 21 22 23 24 24 24 24 26 26 26 27 27 28 29 30 30 30 31 31 31 32 33 32 31 30 29 29 29 29 30 30 30 30 29 29
27 27 26 25 25 24 23 22 22 22 21 21 21 23 25 26 25 26 26 27 29 31 32 32 33 33 33 33 33 33 32 31 30 30 31 31 31 31 31 31 31 30
27 28 28 28 27 26 25 25 24 25 24 22 21 21 22 22 23 25 27 28 29 31 32 33 34 36 36 35 35 34 34 33 33 32 33 33 33 33 33 32 32 32
Wind_Direction
183 182 180 177 176 176 176 174 173 171 170 171 172 171 173 174 174 178 180 180 182 185 187 190 191 191 191 193 199 203 202 198 195 194 197 194 189 188 187 185 183 179
188 187 185 183 182 182 183 183 184 181 178 178 179 180 181 181 181 185 187 187 189 190 191 195 199 202 207 210 212 214 215 217 216 216 218 217 214 213 211 210 204 197
194 193 192 189 187 186 187 190 192 192 190 189 189 190 191 189 188 191 191 192 194 194 193 195 200 206 213 218 220 220 221 223 224 226 228 226 224 223 221 223 219 210
199 199 198 196 194 193 193 194 196 200 202 202 202 202 202 199 196 197 197 197 199 199 197 196 199 205 211 217 222 225 226 228 228 230 232 232 232 230 227 229 228 222
202 203 203 202 201 200 200 199 200 203 207 211 212 212 213 211 207 204 203 202 201 201 201 200 201 204 208 214 220 225 229 231 234 235 237 239 239 238 234 234 234 230
205 206 207 206 206 206 206 206 205 205 207 212 215 216 216 218 217 212 208 206 203 202 202 205 208 209 212 217 221 225 230 233 237 240 243 245 246 246 244 242 242 239
209 210 210 210 210 210 211 211 211 212 211 214 216 217 216 218 219 217 212 209 206 204 205 208 212 216 221 226 228 231 234 237 242 246 250 254 255 255 254 249 246 244
211 212 214 215 215 215 215 215 216 218 218 219 221 220 219 219 220 218 214 212 210 210 212 214 217 220 227 234 237 239 242 244 247 250 254 260 264 266 265 262 254 247
214 215 217 219 221 221 220 219 219 220 223 226 228 227 227 226 226 224 220 217 217 219 221 223 225 227 231 237 242 244 246 248 249 250 251 255 262 268 272 272 266 257
216 217 219 221 224 225 226 225 223 222 223 226 230 232 233 233 233 231 229 227 226 228 233 237 240 241 238 238 240 242 243 245 247 248 248 249 252 258 265 270 271 267
216 215 216 218 223 227 229 230 229 227 225 224 227 231 234 236 237 236 233 232 232 234 240 245 248 248 246 242 239 239 238 238 240 242 244 244 245 247 253 259 263 266
224 220 216 217 222 227 230 232 232 232 230 226 224 226 230 233 236 238 237 234 233 234 237 242 245 246 246 244 241 239 238 236 235 236 238 239 239 240 244 247 251 257
228 226 221 220 223 226 228 230 231 232 232 229 225 222 223 224 227 231 235 235 235 235 236 238 241 243 244 244 242 241 241 240 237 235 235 236 236 236 238 240 242 246
230 227 224 223 224 225 226 227 229 229 230 229 227 225 223 224 224 225 228 230 231 233 234 235 237 239 241 242 241 241 242 243 242 240 238 236 235 235 236 237 238 240
231 229 226 225 226 226 225 225 228 230 230 227 225 224 224 225 227 229 230 230 230 230 230 232 235 237 239 240 241 240 239 242 243 243 242 241 240 239 238 238 238 239
232 230 229 229 229 228 227 226 226 230 233 229 224 222 222 223 225 229 232 234 234 233 232 232 233 234 236 237 239 240 239 238 241 244 245 246 247 247 245 243 242 242
233 231 232 233 231 229 228 228 226 227 230 229 225 222 222 224 226 227 229 233 236 238 239 239 239 238 238 237 238 240 239 237 238 240 245 248 251 253 254 252 250 249
232 233 234 233 233 231 229 229 226 224 224 223 222 222 224 227 231 231 231 232 234 237 240 242 245 245 245 244 243 242 242 242 240 238 238 241 246 250 253 255 254 253
234 237 237 235 236 236 233 230 226 223 220 218 219 224 227 229 233 235 235 234 234 235 237 240 244 246 247 246 245 245 245 246 246 244 241 238 237 239 243 246 249 251
247 246 244 242 241 240 235 231 229 227 225 222 225 233 236 236 236 236 236 237 237 238 238 239 242 245 246 246 245 245 245 245 247 249 249 246 242 239 238 239 241 243
249 248 250 249 246 240 234 231 231 232 231 231 235 239 240 239 239 237 236 237 239 241 243 243 243 245 247 248 248 247 247 245 245 246 249 251 251 249 247 244 243 244
244 243 248 250 247 243 238 236 235 235 236 238 241 241 237 236 238 239 240 239 239 241 244 247 248 248 248 250 250 250 250 249 248 246 247 249 251 252 252 251 251 250
244 243 245 247 247 246 245 243 241 240 240 240 240 240 239 239 240 241 244 246 245 244 245 248 250 252 252 253 253 252 251 251 251 251 250 250 250 251 253 254 255 254
242 243 243 245 247 249 250 251 251 250 248 246 244 243 243 244 244 244 244 246 247 247 247 248 250 252 254 255 256 256 254 253 252 253 253 252 252 253 255 257 258 258
241 242 243 245 247 250 252 255 257 258 258 255 253 250 247 247 249 249 248 247 247 248 248 248 249 251 252 253 256 258 258 257 255 254 253 253 253 255 257 258 259 260
244 244 244 244 246 248 251 253 255 257 258 257 256 254 252 251 252 252 252 252 251 250 249 249 248 249 250 250 252 255 258 260 260 258 255 253 253 253 254 255 256 257